Torna al catalogo

QPS-SAR-12 KUSHINADA-I

AttivoScienzaVLEO
NORAD 65116·PAYLOAD·🇯🇵 Japan

Lanciato Aug 5, 2025 da Rocket Lab Launch Complex 1

Loading…

Prossimi Passaggi (prossime 24 ore)

TLE

AggiornatoSource: Space-Track

Epoca: Sep 14, 2026, 11:02 UTC

1 65116U 25169A   26257.46012797  .00003568  00000-0  28541-3 0  9995
2 65116  42.0104 244.1079 0006727  76.9762 283.1815 15.01490242 60831

Traccia QPS-SAR-12 KUSHINADA-I in tempo reale con AllMySat

Download on the App Store